DELTA 1 DEB, 10826

Orbit data source: Space-Track

DELTA 1 DEB, 10826 is space debris in SSO originally from a launch on Thu, 29 Jul 1976 UTC launched from the Air Force Western Test Range (AFWTR). Debris objects in space refer to the collection of defunct objects orbiting the Earth. Examples of debris include non-operational satellites, rocket bodies, and fragments generated from explosions, collisions, or faulty payload assembly.

Loading next visibility...
Identifier
10826, 1976-077BW
Orbit
SSO
Country
Flag of USUS
Related business
Manufacturer
Unknown
Mission
Spacecraft
Bus & Motor
Unknown
Mass
Unknown
Launch date (UTC)
1976-07-29 (50 years ago)
Launch vehicle
Unknown
Launch site
Air Force Western Test Range (AFWTR)
Object type
Payload
Rocket body
Debris
Shape & HBR
Unknown shape, 0.1 m
Radar Cross Section
Medium (>0.1 m² and <1 m²)

Expand to show TLE details & history
Last TLE update: 19 hours ago

TLE from 19 hours ago
0 DELTA 1 DEB
1 10826U 76077BW  26255.29477942  .00002210  00000-0  12399-1 0  9998
2 10826 101.9409 173.7057 0143868 302.0546 210.7327 12.60597947259977
Epoch: 2026-09-12T07:04Z
TLE epoch observation values (Epoch: 2026-09-12T07:04:28.941Z)
Latitude
27.42237°
Longitude
-97.45204°
Altitude
1,520.413 km
Speed
7.063 km/s
True Right ascension
23h 59m 53s
True Declination
27° 17' 44"
Sunlit
Object was in full shadow at epoch
Visualization orbit readout
Latitude
Unknown
Longitude
Unknown
Altitude
Unknown
Speed
Unknown
Apparent Right ascension
Unknown
Apparent Declination
Unknown
Sunlit
N/A
Visualization observer readout
Local Sidereal Time
18:35:39
Azimuth
Unknown
Elevation
Unknown
Doppler factor
Unknown
Orbital elements
Apogee altitude
1,530.183 km
Perigee altitude
1,305.859 km
Semi-major axis
7,796.158 km
Eccentricity
0.01439
Inclination
101.9409°
RAAN
173.7057°
Arg. of periapsis
302.0546°
True anomaly
209.90307°
Mean anomaly
210.7327°
Eccentric anomaly
210.31661°
Mean motion
3.15299 °/min
Orbital period
114.18 mins
BSTAR
0.012399
Loading maneuver chart data...
Computing Atmospheric mass density...
Loading historical data...
Loading historical data...
Loading historical data...
Loading historical data...
Loading historical data...
Loading historical data...
Loading historical data...

Documentation

Showing up to 5 results
|